This demonstration page uses our WeatherBlox Daily Observations layout. Learn more.

Left ArrowRight Arrow

Hourly Observations for December 21, 2019

Temp ( °F °C ) Dew Point ( °F °C ) Humidity (%) Winds ( mph kmh ) Pressure ( in mb ) Visibility ( mi km ) Precip ( " mm )
12:53 am 00:53 Clear 40 4.4 28 -2.2 63 63 WSW 13 20 29.84 1011 10 16 0.00 0.00
1:53 am 01:53 Clear 36 2.2 28 -2.2 73 73 WNW 12 19 29.87 1011 10 16 0.00 0.00
2:53 am 02:53 Clear 38 3.3 28 -2.2 68 68 W 8 13 29.85 1011 10 16 0.00 0.00
3:53 am 03:53 Clear 36 2.2 27 -2.8 70 70 VRB 3 6 29.87 1011 10 16 0.00 0.00
4:53 am 04:53 Clear 40 4.4 27 -2.8 60 60 SW 6 9 29.83 1010 10 16 0.00 0.00
5:53 am 05:53 Clear 42 5.6 28 -2.2 58 58 WSW 8 13 29.81 1009 10 16 0.00 0.00
6:53 am 06:53 Clear 40 4.4 28 -2.2 63 63 NNW 3 6 29.81 1009 10 16 0.00 0.00
7:53 am 07:53 Clear 44 6.7 28 -2.2 53 53 SW 13 20 29.79 1009 10 16 0.00 0.00
8:53 am 08:53 Sunny 48 8.9 28 -2.2 46 46 SSW 18 30 29.76 1008 10 16 0.00 0.00
9:53 am 09:53 Sunny 49 9.4 28 -2.2 44 44 SW 22 35 29.77 1008 10 16 0.00 0.00
10:53 am 10:53 Sunny 51 10.6 28 -2.2 41 41 SW 23 37 29.76 1008 10 16 0.00 0.00
11:53 am 11:53 Sunny 53 11.7 28 -2.2 38 38 SW 24 39 29.72 1007 10 16 0.00 0.00
12:53 pm 12:53 Sunny 56 13.3 29 -1.7 36 36 SW 23 37 29.70 1006 10 16 0.00 0.00
1:53 pm 13:53 Sunny 56 13.3 29 -1.7 36 36 SW 23 37 29.68 1005 10 16 0.00 0.00
2:53 pm 14:53 Sunny 59 15 28 -2.2 31 31 SW 29 46 29.65 1004 10 16 0.00 0.00
3:53 pm 15:53 Sunny 56 13.3 27 -2.8 33 33 SW 26 43 29.68 1005 10 16 0.00 0.00
4:53 pm 16:53 Clear 54 12.2 24 -4.4 31 31 SSW 25 41 29.68 1005 10 16 0.00 0.00
5:53 pm 17:53 Clear 50 10 24 -4.4 36 36 SW 15 24 29.68 1005 10 16 0.00 0.00
6:53 pm 18:53 Clear 48 8.9 25 -3.9 41 41 SW 12 19 29.69 1005 10 16 0.00 0.00
7:53 pm 19:53 Clear 49 9.4 27 -2.8 43 43 SW 20 31 29.68 1005 10 16 0.00 0.00
8:53 pm 20:53 Clear 45 7.2 26 -3.3 48 48 WSW 14 22 29.67 1005 10 16 0.00 0.00
9:53 pm 21:53 Clear 51 10.6 24 -4.4 35 35 SW 21 33 29.67 1005 10 16 0.00 0.00
10:53 pm 22:53 Clear 42 5.6 25 -3.9 51 51 WSW 12 19 29.70 1006 10 16 0.00 0.00
11:53 pm 23:53 Clear 45 7.2 24 -4.4 44 44 SW 15 24 29.71 1006 10 16 0.00 0.00

Powered by AerisWeather